Wind_Speed
78 82 85 90 89 85 79 78 80 80 75 72 70 70 71 69 65 66 69 72 77 82 87 88 91 93 93 93 90 87 77 75 67 59 57 55 55 54 49 47 47 47 47
82 86 88 85 73 69 69 67 71 74 71 67 63 61 63 64 59 56 59 62 66 69 73 79 87 92 93 93 90 87 82 79 71 64 60 57 56 55 52 48 49 48 48
86 88 83 67 65 68 69 69 66 67 61 60 62 60 57 58 56 54 55 53 52 56 60 64 67 77 89 93 90 87 85 80 76 69 64 60 58 56 53 48 48 50 49
87 81 69 64 69 67 67 64 62 60 58 56 55 57 56 55 54 53 53 52 51 52 54 61 64 66 72 82 92 89 85 79 79 74 67 62 60 57 53 51 46 49 50
81 70 64 69 67 67 67 62 58 56 53 52 52 51 53 55 53 54 52 52 51 50 54 57 62 64 67 69 81 89 85 79 75 77 71 65 61 58 52 50 47 48 49
72 64 68 70 70 68 65 60 53 53 49 48 50 47 47 48 50 51 51 49 46 46 50 54 53 54 54 57 66 82 87 83 73 75 70 66 58 59 54 53 48 46 47
64 66 70 66 63 63 61 58 52 48 45 45 41 43 42 42 44 46 47 48 44 43 45 42 40 38 39 40 47 61 78 70 68 74 69 63 62 58 57 53 49 45 46
64 70 65 63 63 61 57 56 51 45 41 38 36 36 35 38 38 41 42 43 44 40 42 38 34 34 35 39 43 46 58 67 72 73 68 63 57 53 55 52 48 45 46
67 71 67 66 66 58 52 52 49 42 36 37 40 37 34 33 36 36 37 40 38 32 35 35 34 34 37 38 38 38 45 52 64 69 60 53 53 56 56 52 46 46 45
69 69 66 66 59 49 49 47 44 38 31 32 32 33 30 30 33 33 37 38 35 31 33 36 35 35 37 39 39 48 49 42 43 50 49 53 51 48 47 47 46 46 45
71 66 67 59 50 46 46 44 40 28 23 21 20 21 21 25 27 30 33 35 34 35 34 36 35 36 38 44 54 55 51 41 49 53 48 41 39 40 43 42 45 46 47
67 67 60 52 42 41 40 39 26 18 15 11 11 14 15 19 23 27 30 34 35 32 34 37 37 36 37 43 53 64 42 41 49 54 43 39 36 35 37 41 44 47 47
67 64 53 37 34 35 36 25 14 9 8 7 6 12 14 15 18 25 32 23 17 17 24 27 30 31 37 42 56 47 47 45 45 40 40 37 35 35 37 42 46 39 40
60 53 36 26 29 30 24 13 7 4 7 9 9 9 12 15 12 9 9 5 7 15 19 19 27 33 32 44 40 47 47 47 47 45 39 36 34 35 40 36 31 35 41
49 37 29 24 25 19 13 13 13 12 10 7 5 0 2 2 3 4 8 6 8 16 18 17 32 32 44 38 44 43 45 45 43 39 38 36 35 29 25 26 33 40 42
39 34 27 20 13 14 15 13 10 7 7 14 12 9 10 15 15 16 16 21 22 23 30 38 39 41 44 41 44 47 46 39 36 34 30 26 23 22 25 29 29 33 39
25 22 19 18 20 18 15 13 13 16 16 11 12 16 21 21 21 21 28 35 37 33 30 31 41 34 36 40 42 38 38 36 32 28 25 23 23 23 19 17 22 20 20
21 23 22 21 20 16 14 15 15 14 14 16 20 23 23 21 23 20 22 26 29 29 28 37 42 35 40 34 38 38 35 31 27 26 24 20 16 10 11 8 7 7 6
17 17 17 20 18 15 13 12 13 14 16 16 21 24 21 18 16 15 22 27 31 34 34 32 32 32 38 40 37 32 28 27 27 23 17 13 12 11 6 3 4 11 15
19 18 19 16 13 12 12 11 9 12 15 20 24 17 15 17 20 25 32 37 34 33 35 37 41 39 37 34 30 29 30 27 21 16 14 18 18 21 23 26 23 21 25
20 23 19 16 16 11 10 10 11 14 21 18 17 24 26 25 26 27 29 31 34 35 39 38 38 34 29 33 33 34 26 20 16 17 24 24 22 36 38 43 42 41 42
18 22 18 13 13 11 11 17 20 19 17 18 25 26 24 28 31 32 34 34 32 32 37 35 30 31 35 35 36 27 23 19 19 26 29 26 23 26 37 45 47 50 48
16 20 19 14 14 12 12 19 20 20 22 26 27 30 34 37 36 31 29 33 35 35 32 30 28 34 41 38 31 27 23 20 21 31 29 30 27 21 33 43 42 42 44
12 15 16 14 12 13 18 22 23 26 30 30 30 40 37 30 26 31 32 31 31 29 28 27 30 43 38 34 31 28 24 23 24 32 30 34 32 31 30 37 38 36 35
12 9 11 10 9 11 20 29 30 30 28 31 37 36 33 28 25 29 27 29 28 24 26 29 40 40 35 34 31 28 29 30 29 29 29 33 30 30 28 32 32 26 27
8 4 6 8 13 19 24 29 29 26 27 32 34 32 27 23 22 28 25 25 23 22 29 33 43 36 35 33 30 30 29 30 36 39 30 29 28 30 33 30 28 27 27
Wind_Direction
304 305 307 306 303 300 300 299 297 290 284 280 275 271 269 267 263 257 253 251 252 252 254 252 251 252 251 251 251 253 247 244 239 238 240 241 242 241 240 243 246 246 247
306 309 309 306 303 304 303 304 303 293 283 277 272 268 267 265 262 256 251 249 250 252 253 253 249 249 249 249 249 249 249 248 242 237 234 238 239 242 240 240 245 246 248
313 312 310 304 305 305 304 306 305 295 284 278 269 267 265 264 261 254 247 245 248 251 254 255 254 252 248 246 247 246 246 248 240 237 230 236 237 240 241 239 244 247 248
314 312 308 306 307 307 305 306 305 295 286 277 272 264 260 261 260 255 250 246 248 252 256 256 256 255 252 248 244 243 242 242 245 238 229 235 237 238 241 241 243 246 247
315 312 308 310 308 308 308 305 306 298 284 277 272 268 260 256 253 254 251 249 249 251 256 258 258 258 253 248 243 240 239 240 239 243 233 230 236 240 240 241 242 245 247
315 314 313 310 309 308 308 306 305 298 286 275 270 269 263 257 252 251 251 249 248 250 256 260 260 256 253 248 242 237 237 235 233 239 238 232 235 242 241 241 243 247 247
315 315 314 312 311 308 309 309 305 298 289 277 268 267 263 255 249 246 248 246 243 248 258 260 246 248 238 236 237 235 233 234 229 233 235 234 237 239 241 243 241 245 248
317 319 317 316 315 313 311 310 305 297 289 274 264 266 268 258 247 244 246 244 242 249 257 248 242 237 226 222 224 228 227 226 228 230 232 237 237 236 241 243 242 245 248
317 319 316 313 316 313 312 310 306 298 287 277 262 262 261 255 240 239 242 235 237 250 254 239 238 231 222 219 217 216 213 211 218 228 227 227 231 236 242 244 243 245 248
319 320 317 315 314 313 312 311 306 298 287 279 266 258 253 245 234 234 234 232 237 250 245 234 234 226 217 219 199 195 183 188 202 214 217 226 228 226 234 241 243 246 249
322 322 319 318 316 314 315 313 308 295 291 277 262 251 247 240 225 226 232 238 246 246 240 233 228 232 220 213 195 188 181 192 189 205 207 206 214 221 233 238 242 247 252
324 321 320 319 315 317 320 316 308 295 291 283 268 256 232 210 210 223 234 244 246 244 236 231 229 229 215 210 204 189 186 198 198 203 207 207 209 217 229 235 242 247 254
325 322 325 322 323 324 324 320 312 306 280 270 199 183 192 208 225 236 245 244 253 243 218 203 199 208 206 194 188 181 176 190 205 202 185 191 202 217 229 237 243 255 261
326 329 328 329 328 333 336 346 354 43 104 125 155 182 214 238 243 257 275 252 166 147 187 185 193 192 192 194 165 157 161 166 170 176 181 191 203 218 229 241 251 256 260
336 340 337 331 341 350 23 60 78 88 105 133 177 137 84 114 200 178 122 123 150 157 161 162 184 174 171 162 154 154 161 169 172 176 183 194 206 215 227 238 250 261 271
348 347 346 347 11 35 57 67 80 89 66 63 84 102 113 110 102 101 98 103 118 141 148 143 148 150 148 155 167 164 164 167 175 176 177 182 192 206 226 247 266 269 273
23 24 32 47 51 52 52 46 49 63 69 87 96 100 105 107 103 98 101 114 132 129 130 139 137 137 148 158 155 158 168 166 159 162 169 178 194 221 250 252 261 284 298
24 26 30 39 47 51 52 78 85 80 78 111 113 111 113 115 112 104 108 125 127 135 148 153 149 146 144 154 154 149 148 150 155 160 171 190 215 220 218 256 289 285 115
15 22 24 31 47 69 94 96 98 68 69 107 112 111 113 128 127 120 124 130 141 147 153 156 148 138 139 138 138 139 144 148 158 168 179 194 168 166 107 137 162 117 141
16 21 25 35 55 66 73 66 67 80 97 113 120 118 127 121 116 121 128 135 139 140 136 134 134 134 132 134 137 142 145 157 160 161 167 155 144 110 121 117 117 120 119
22 52 55 61 68 62 52 63 73 82 113 121 122 113 113 110 117 126 130 133 132 133 136 133 129 132 136 138 134 141 150 146 149 156 152 147 127 130 120 108 110 102 101
52 64 57 61 59 41 69 87 93 103 110 117 115 117 115 114 120 124 123 122 125 129 126 122 131 139 136 134 137 139 132 138 149 149 146 133 126 133 134 126 118 117 115
63 61 50 54 57 68 92 97 101 105 118 120 121 121 121 120 118 117 120 122 117 115 121 128 129 137 133 133 134 127 129 132 133 140 140 129 137 133 137 125 121 120 120
76 58 52 41 49 86 107 107 108 117 122 123 124 125 118 116 121 123 115 113 109 113 119 125 135 133 129 133 126 124 123 114 122 136 136 134 138 129 126 130 128 127 125
81 64 39 46 76 99 118 119 127 134 129 125 128 125 125 129 120 110 102 108 112 115 125 131 134 132 132 128 123 121 115 104 110 131 136 141 137 142 140 140 142 140 132
104 96 44 94 113 122 125 127 134 130 126 130 133 133 137 137 115 106 94 104 111 126 133 136 138 136 131 129 124 120 117 112 104 99 119 137 140 145 150 143 138 135 131
Height
5637 5625 5613 5601 5587 5575 5566 5556 5548 5540 5535 5531 5530 5528 5527 5530 5534 5536 5541 5546 5550 5554 5558 5569 5579 5584 5595 5607 5617 5627 5639 5649 5662 5672 5679 5685 5689 5692 5697 5704 5709 5714 5717
5614 5602 5590 5575 5562 5552 5543 5534 5523 5513 5509 5506 5504 5503 5504 5505 5509 5513 5518 5523 5527 5532 5535 5540 5552 5556 5568 5580 5593 5606 5618 5628 5641 5653 5661 5669 5675 5679 5684 5690 5696 5701 5705
5592 5577 5564 5552 5543 5533 5522 5510 5499 5489 5485 5482 5482 5483 5483 5485 5488 5493 5498 5503 5508 5512 5517 5520 5526 5532 5542 5553 5567 5581 5596 5608 5618 5631 5644 5651 5660 5666 5673 5676 5682 5688 5693
5570 5555 5542 5533 5523 5513 5502 5490 5478 5469 5464 5462 5461 5462 5465 5466 5469 5473 5479 5486 5490 5495 5498 5500 5505 5512 5519 5526 5539 5556 5572 5588 5598 5611 5625 5635 5645 5653 5659 5665 5669 5674 5679
5548 5535 5524 5515 5503 5493 5482 5472 5461 5451 5445 5443 5442 5443 5446 5447 5451 5454 5460 5466 5471 5477 5479 5483 5488 5491 5497 5504 5516 5533 5549 5567 5582 5593 5608 5620 5630 5639 5647 5651 5655 5661 5667
5528 5517 5506 5495 5484 5473 5463 5454 5444 5435 5429 5426 5425 5427 5429 5431 5434 5438 5443 5450 5456 5461 5464 5466 5471 5474 5479 5486 5496 5511 5528 5547 5564 5577 5592 5606 5616 5624 5632 5638 5642 5649 5655
5512 5501 5488 5475 5465 5454 5446 5436 5427 5420 5414 5411 5410 5411 5414 5416 5419 5424 5429 5436 5443 5447 5450 5452 5457 5461 5465 5471 5480 5492 5509 5528 5546 5561 5576 5591 5599 5609 5617 5626 5630 5637 5641
5496 5484 5470 5459 5448 5437 5428 5419 5412 5404 5400 5397 5397 5398 5400 5403 5406 5412 5417 5423 5431 5435 5437 5441 5446 5450 5454 5460 5467 5478 5494 5512 5532 5549 5564 5575 5585 5595 5606 5614 5620 5625 5628
5481 5469 5455 5443 5433 5421 5413 5404 5396 5389 5386 5384 5384 5386 5388 5391 5394 5400 5405 5412 5419 5423 5426 5430 5434 5439 5445 5451 5458 5468 5482 5501 5519 5534 5546 5559 5574 5585 5594 5604 5609 5612 5616
5467 5453 5439 5427 5415 5406 5398 5390 5382 5376 5373 5371 5371 5373 5376 5379 5384 5389 5395 5402 5408 5412 5414 5418 5423 5429 5435 5442 5448 5459 5474 5492 5509 5524 5538 5551 5564 5575 5586 5593 5598 5602 5603
5453 5438 5425 5411 5401 5393 5386 5377 5369 5364 5363 5361 5362 5364 5367 5371 5376 5382 5388 5392 5397 5400 5403 5409 5414 5420 5426 5433 5439 5453 5468 5486 5501 5515 5530 5543 5556 5567 5577 5584 5588 5589 5590
5438 5424 5411 5398 5390 5383 5375 5366 5359 5357 5357 5356 5357 5359 5362 5366 5372 5377 5381 5383 5385 5387 5392 5397 5403 5409 5417 5426 5434 5446 5461 5479 5495 5511 5527 5540 5550 5561 5569 5574 5577 5578 5579
5427 5412 5398 5388 5382 5375 5368 5360 5355 5353 5353 5353 5355 5358 5362 5366 5370 5372 5373 5373 5374 5377 5381 5386 5393 5402 5410 5421 5431 5447 5462 5479 5496 5512 5525 5536 5545 5555 5562 5565 5567 5568 5568
5415 5400 5389 5383 5378 5372 5363 5356 5353 5353 5354 5357 5360 5362 5364 5364 5365 5364 5365 5368 5370 5374 5378 5382 5389 5400 5410 5422 5436 5451 5465 5483 5497 5511 5522 5533 5542 5549 5553 5557 5559 5558 5554
5407 5395 5387 5381 5377 5372 5365 5360 5359 5360 5361 5362 5363 5363 5364 5364 5363 5364 5366 5368 5371 5376 5382 5386 5393 5402 5416 5430 5444 5458 5471 5486 5498 5509 5520 5529 5537 5543 5547 5550 5549 5546 5541
5406 5396 5387 5381 5378 5374 5370 5368 5367 5366 5366 5367 5367 5366 5366 5367 5368 5370 5372 5374 5375 5381 5388 5396 5405 5415 5429 5441 5451 5464 5477 5489 5500 5509 5518 5527 5533 5538 5541 5542 5539 5534 5527
5410 5400 5391 5385 5382 5380 5377 5374 5373 5372 5372 5371 5371 5373 5375 5377 5378 5379 5383 5386 5390 5395 5402 5408 5416 5426 5437 5448 5460 5470 5482 5492 5502 5511 5518 5524 5529 5533 5535 5535 5532 5525 5517
5415 5406 5398 5394 5390 5386 5384 5382 5380 5379 5380 5378 5380 5381 5383 5386 5388 5390 5395 5398 5401 5405 5413 5421 5429 5436 5445 5456 5466 5477 5487 5496 5504 5510 5517 5522 5526 5529 5531 5530 5525 5521 5517
5419 5411 5404 5400 5396 5392 5389 5389 5389 5387 5386 5385 5388 5390 5392 5395 5396 5400 5402 5406 5412 5418 5425 5433 5440 5446 5455 5465 5474 5483 5491 5498 5505 5511 5517 5520 5525 5529 5530 5528 5525 5520 5518
5419 5413 5408 5404 5400 5398 5398 5397 5395 5395 5395 5396 5397 5399 5400 5403 5406 5409 5414 5418 5424 5429 5435 5441 5449 5458 5466 5474 5481 5488 5496 5502 5507 5513 5516 5521 5526 5530 5531 5528 5526 5524 5523
5423 5416 5413 5411 5409 5405 5403 5402 5401 5401 5403 5406 5407 5408 5411 5414 5417 5421 5425 5430 5434 5438 5446 5453 5461 5468 5473 5480 5487 5494 5500 5505 5510 5514 5519 5524 5529 5533 5530 5532 5529 5530 5530
5426 5421 5421 5419 5415 5410 5408 5408 5410 5410 5412 5413 5416 5421 5422 5425 5429 5432 5436 5441 5447 5452 5458 5464 5469 5474 5482 5489 5495 5500 5505 5509 5513 5517 5522 5526 5530 5537 5535 5535 5536 5538 5542
5430 5425 5425 5424 5421 5419 5417 5417 5418 5420 5422 5425 5426 5430 5433 5436 5440 5444 5448 5453 5458 5462 5468 5473 5477 5483 5490 5496 5501 5506 5511 5514 5516 5520 5525 5530 5534 5539 5543 5544 5548 5551 5551
5434 5432 5429 5428 5426 5424 5425 5425 5426 5429 5432 5435 5438 5441 5443 5446 5450 5456 5460 5463 5467 5472 5476 5481 5485 5491 5498 5503 5508 5513 5516 5518 5520 5525 5530 5535 5540 5546 5550 5554 5557 5561 5564
5436 5436 5434 5432 5431 5430 5431 5434 5435 5437 5439 5443 5447 5449 5452 5456 5460 5464 5469 5472 5475 5480 5484 5488 5493 5500 5505 5510 5515 5519 5522 5524 5525 5529 5534 5540 5546 5551 5556 5561 5565 5568 5572
5441 5441 5439 5438 5436 5436 5437 5440 5443 5446 5448 5451 5454 5457 5461 5464 5467 5473 5478 5480 5483 5485 5489 5495 5501 5507 5512 5517 5521 5525 5529 5532 5534 5536 5539 5545 5551 5556 5561 5566 5571 5575 5578